Home > Weather > Ontario > Past weeks

Flag for USA Past Weather in Ontario, Oregon, USA — Yesterday and Last 2 Weeks

Now
84 °F

Sunny.


Feels Like: 81 °F
Forecast: 65 / 93 °F
Wind: 12 mph from Northwest

Location: Ontario Municipal Airport

Current Time: Jul 30, 2016 at 11:30:16 PM

Latest Report: Jul 30, 2016 at 10:53 PM


Visibility: 10 mi

Pressure: 29.68 "Hg (27.56 "Hg at 656m altitude)

Humidity: 13%

Dew Point: 29 °F

Location of OntarioLocation

Past Weather in Ontario — Graph

°F

Ontario Temperature Yesterday

Maximum temperature yesterday: 101 °F (at 4:53 PM)
Minimum temperature yesterday: 69 °F (at 5:53 AM)
Average temperature yesterday: 85 °F

High & Low Weather Summary for the Past Weeks

 TemperatureHumidityPressure
High104 °F (Jul 30, 3:53 PM)70% (Jul 21, 5:53 AM)30.14 "Hg (Jul 21, 5:53 AM)
Low57 °F (Jul 17, 6:53 AM)6% (Jul 30, 5:53 PM)29.62 "Hg (Jul 30, 6:53 PM)
Average80 °F33%29.90 "Hg
* Reported Jul 15 9:53 PM — Jul 30 9:53 PM, Ontario, Weather by CustomWeather, © 2016

Note: Actual official high and low records may vary slightly from our data, if they occured in-between our weather recording intervals... More about our weather records

Advertising

Ontario Weather History for the Previous 24 Hours

Scroll right to see more
 ConditionsComfort  
Time TempWeatherWind HumidityBarometerVisibility
9:53 PM
Sat, Jul 30
82 °FSunny.3 mph22%29.66 "Hg10 mi
8:53 PM92 °FSunny.10 mph13%29.63 "Hg10 mi
7:53 PM99 °FSunny.10 mph9%29.62 "Hg10 mi
6:53 PM103 °FSunny.9 mph7%29.62 "Hg10 mi
5:53 PM104 °FSunny.13 mph6%29.63 "Hg10 mi
4:53 PM103 °FSunny.12 mph7%29.64 "Hg10 mi
3:53 PM104 °FSunny.13 mph7%29.66 "Hg10 mi
2:53 PM101 °FSunny.8 mph11%29.69 "Hg10 mi
1:53 PM98 °FSunny.8 mph14%29.71 "Hg10 mi
12:53 PM95 °FSunny.8 mph17%29.74 "Hg10 mi
11:53 AM93 °FSunny.6 mph18%29.75 "Hg10 mi
10:53 AM90 °FSunny.9 mph24%29.76 "Hg10 mi
9:53 AM81 °FSunny.No wind47%29.77 "Hg10 mi
8:53 AM73 °FSunny.No wind51%29.76 "Hg10 mi
7:53 AM70 °FClear.No wind64%29.75 "Hg10 mi
6:53 AM70 °FClear.3 mph46%29.74 "Hg10 mi
5:53 AM67 °FClear.7 mph53%29.72 "Hg10 mi
4:53 AM71 °FClear.8 mph47%29.72 "Hg10 mi
3:53 AM73 °FClear.6 mph44%29.72 "Hg10 mi
2:53 AM73 °FClear.No wind51%29.73 "Hg10 mi
1:53 AM76 °FClear.3 mph40%29.72 "Hg10 mi
12:53 AM75 °FClear.5 mph48%29.72 "Hg10 mi
11:53 PM
Fri, Jul 29
76 °FClear.No wind42%29.72 "Hg10 mi
Weather by CustomWeather, © 2016

See weather overviewHow to use our weather pages